map of CAY home
Great Circle Mapper logo
CAY - Airport
Location
City:  Cayenne, French Guiana
Name:Rochambeau
ICAO / IATA:SOCA / CAY

Details
Type:Airport (Aerodrome, Airfield)
Latitude:449'11"N (4.819722)
Longitude:5221'43"W (-52.361943)
Elevation:26 ft (8 m)
Variation:18.34W (WMM2015 magnetic declination)
-0.02 annual change
Runways:1
Longest:10499 × 148 ft (3200 × 45 m), paved

Time
Time Zone:UTC-3
Local Time:

Weather
METAR:SOCA 030600Z AUTO 00000KT 9999 VV/// 23/23 Q1011
TAF:SOCA 022300Z 0300/0324 VRB02KT CAVOK
BECMG 0312/0314 10010KT PROB30
TEMPO 0314/0320 3000 SHRA SCT015TCU

Related Locations
Nearby:
Farthest:AMQ: 12350 mi / 19875 km
Ambon [Pattimura], ML, ID

Find:

   beyond  
but within

Other Information
Maps:
NOTAMs:
Links:
Sources:

  
flag of French Guiana   

Sectional Chart

Flight Planning
at skyvector.com

Satellite Image

Google Maps Satellite view

 

Copyright © 2004-2015 Karl L. Swartz. All rights reserved.
The Great Circle Mapper name and logo are trademarks of the Great Circle Mapper.
All other trademarks mentioned herein belong to their respective owners.
Please see credits for attibutions and further copyright information.

  Follow gcmap on Facebook Follow gcmap on Twitter Follow gcmap on Google+

hCard Microformat

Geo Microformat